Location: Unspecified
(0.0000°N, 0.0000°E)
Time: 09:22:55
(UTC+00:00)

N. Korean satellite - Pass Details

Date: 31 May 2020
Orbit: 454 x 505 km, 97.2° (Epoch: 06 July)

Event Time Altitude Azimuth Distance (km) Brightness Sun altitude
Rises 04:37:16 0° 36° (NE) 2,576 11.3 -18.6°
Reaches altitude 10° 04:39:48 10° 54° (NE) 1,689 10.5 -18.0°
Maximum altitude 04:42:26 19° 101° (E) 1,224 9.3 -17.4°
Drops below altitude 10° 04:45:02 10° 147° (SSE) 1,676 9.4 -16.8°
Sets 04:47:32 0° 166° (SSE) 2,549 10.1 -16.2°
